User: anonymous   Login
Location: Unspecified
(0.0000°N, 0.0000°E)
Time: 02:51:33
(UTC+02:00)
Language:

Cosmos 2219 - Orbit

View from above orbital plane
View from above orbital plane
View from above satellite
View from above satellite

Ground track
Ground track

The orbit data is extracted from the following two-line orbital elements,

1 22219U 92076A   18111.57844017 -.00000216 +00000-0 -89445-4 0  9993
2 22219 071.0579 273.5284 0020393 276.2291 083.6508 14.13622739311478
Epoch (UTC): 21 April 2018 13:52:57
Eccentricity: 0.0020393
inclination: 71.0579°
perigee height: 832 km
apogee height: 862 km
right ascension of ascending node: 273.5284°
argument of perigee: 276.2291°
revolutions per day: 14.13622739
mean anomaly at epoch: 83.6508°
orbit number at epoch: 31147

The dashed part of the orbit path shows where the satellite is in the earth's shadow,  

DLR